CW9921 Weather Reports


time (UTC)temp
C
wind
direction
speed
KPH
gust
KPH
rain 1hr
cm
rain 24hr
cm
rain mn
cm
humidity
%
barometer
mb
20260906124611 22 0 0.0 0.0 0.00 3.43 3.43 100 1014.6
20260906123103 21 0 0.0 1.6 0.00 3.43 3.43 100 1014.6
20260906121607 20 0 0.0 0.0 0.00 3.43 3.43 100 1014.5
20260906120112 20 0 0.0 0.0 0.00 3.43 3.43 100 1014.3
20260906114558 20 0 0.0 0.0 0.00 3.43 3.43 100 1014.2
20260906113102 20 0 0.0 0.0 0.00 3.43 3.43 100 1014.2
20260906111554 20 0 0.0 0.0 0.00 3.43 3.43 100 1014.1
20260906110057 20 0 0.0 0.0 0.00 3.43 3.43 99 1014.0
20260906104601 20 0 0.0 0.0 0.00 3.43 3.43 99 1013.9
20260906103100 20 0 0.0 0.0 0.00 3.43 3.43 99 1013.8
20260906101557 20 0 0.0 0.0 0.00 3.43 3.43 99 1013.8
20260906100100 20 0 0.0 0.0 0.00 3.43 3.43 99 1014.0
20260906094601 21 0 0.0 0.0 0.00 3.43 3.43 99 1014.4
20260906093100 21 0 0.0 0.0 0.00 3.43 3.43 99 1014.0
20260906091555 21 0 0.0 0.0 0.00 3.43 3.43 99 1013.9
20260906090103 21 0 0.0 1.6 0.00 3.43 3.43 99 1013.5
20260906084601 21 0 0.0 0.0 0.00 3.43 3.43 99 1013.4
20260906083100 21 0 0.0 0.0 0.00 3.43 3.43 99 1013.5
20260906081554 21 0 0.0 0.0 0.00 3.43 3.43 99 1013.7
20260906074603 21 0 0.0 1.6 0.00 3.43 3.43 99 1013.8
20260906073105 21 0 0.0 1.6 0.03 3.43 3.43 98 1013.9
20260906071604 21 0 0.0 1.6 0.08 3.43 3.43 98 1014.1
20260906070058 21 0 0.0 1.6 0.56 3.43 3.43 98 1014.4
20260906064602 21 0 0.0 0.0 1.45 3.43 3.43 98 1014.3
20260906063104 21 0 0.0 3.2 2.97 3.40 3.40 98 1015.2
20260906061626 22 0 0.0 3.2 3.35 3.35 3.35 97 1016.0
20260906054601 22 0 0.0 8.0 1.98 1.98 1.98 95 1016.6
20260906053104 24 103 1.6 9.7 0.36 0.36 0.36 89 1016.0
20260906051609 24 0 0.0 8.0 0.00 0.00 0.00 81 1014.7
20260906050219 25 133 0.0 4.8 0.00 0.00 0.00 78 1013.7
20260906044559 25 150 0.0 3.2 0.00 0.00 0.00 83 1014.0
20260906043055 25 0 0.0 1.6 0.00 0.00 0.00 80 1014.0
20260906041602 25 0 0.0 0.0 0.00 0.00 0.00 83 1014.0
20260906040106 25 0 0.0 0.0 0.00 0.00 0.00 84 1014.1
20260906034605 25 0 0.0 1.6 0.00 0.00 0.00 85 1014.3
20260906033059 25 0 0.0 4.8 0.00 0.00 0.00 84 1014.2
20260906031557 25 0 0.0 0.0 0.00 0.00 0.00 83 1014.2
20260906030100 25 0 0.0 0.0 0.00 0.00 0.00 84 1014.1
20260906024559 25 0 0.0 0.0 0.00 0.00 0.00 83 1014.0
20260906023107 25 0 0.0 0.0 0.00 0.00 0.00 82 1014.0
20260906021604 25 0 0.0 0.0 0.00 0.00 0.00 82 1013.3
20260906020101 25 0 0.0 0.0 0.00 0.00 0.00 82 1013.1
20260906014605 25 0 0.0 0.0 0.00 0.00 0.00 81 1012.6
20260906013059 25 0 0.0 0.0 0.00 0.00 0.00 80 1012.7
20260906011606 25 0 0.0 1.6 0.00 0.00 0.00 79 1013.0
20260906004604 26 0 0.0 0.0 0.00 0.00 0.00 76 1013.1
20260906003101 26 0 0.0 0.0 0.00 0.00 0.00 74 1013.2
20260906001558 27 0 0.0 1.6 0.00 0.00 0.00 73 1013.0
20260906000100 27 0 0.0 0.0 0.00 0.00 0.00 70 1013.2
20260905234555 27 0 0.0 0.0 0.00 0.00 0.00 70 1013.2
20260905233114 27 0 0.0 1.6 0.00 0.00 0.00 69 1013.3
20260905231558 28 0 0.0 4.8 0.00 0.00 0.00 70 1013.2
20260905224601 28 0 0.0 1.6 0.00 0.00 0.00 66 1012.9
20260905223058 29 62 1.6 8.0 0.00 0.00 0.00 65 1012.7
20260905221604 29 70 1.6 16.1 0.00 0.00 0.00 63 1013.1
20260905214556 31 39 4.8 20.9 0.00 0.00 0.00 60 1013.6
20260905213113 36 0 0.0 9.7 0.00 0.00 0.00 50 1012.7
20260905211610 36 44 1.6 9.7 0.00 0.00 0.00 50 1012.8
20260905210109 37 283 1.6 11.3 0.00 0.00 0.00 50 1012.8
20260905204555 37 254 0.0 4.8 0.00 0.00 0.00 49 1012.6
20260905203102 36 0 0.0 4.8 0.00 0.00 0.00 50 1012.8
20260905201600 35 182 0.0 9.7 0.00 0.00 0.00 55 1013.1
20260905200103 36 341 1.6 8.0 0.00 0.00 0.00 51 1013.3
20260905194556 35 0 1.6 4.8 0.00 0.00 0.00 54 1013.6
20260905193104 35 291 1.6 6.4 0.00 0.00 0.00 56 1013.9
20260905191558 35 0 0.0 4.8 0.00 0.00 0.00 56 1014.0
20260905184557 37 20 3.2 9.7 0.00 0.00 0.00 50 1014.2
20260905183118 36 304 0.0 12.9 0.00 0.00 0.00 50 1014.4
20260905181558 36 32 1.6 11.3 0.00 0.00 0.00 51 1014.6
20260905180105 35 45 0.0 8.0 0.00 0.00 0.00 56 1014.8
20260905174601 35 76 1.6 9.7 0.00 0.00 0.00 58 1015.1
20260905173056 34 98 1.6 8.0 0.00 0.00 0.00 56 1015.1
20260905171556 34 13 4.8 9.7 0.00 0.00 0.00 57 1015.3
20260905164558 33 56 1.6 11.3 0.00 0.00 0.00 59 1015.5
20260905163106 33 34 3.2 9.7 0.00 0.00 0.00 59 1015.7
20260905161600 33 86 1.6 8.0 0.00 0.00 0.00 60 1015.8
20260905160101 33 0 0.0 1.6 0.00 0.00 0.00 62 1016.1
20260905154557 32 0 0.0 6.4 0.00 0.00 0.00 65 1016.3
20260905153107 31 53 0.0 4.8 0.00 0.00 0.00 64 1016.1
20260905151608 31 0 0.0 4.8 0.00 0.00 0.00 66 1016.2
20260905150059 31 109 0.0 3.2 0.00 0.00 0.00 66 1016.2
20260905144559 31 0 0.0 4.8 0.00 0.00 0.00 70 1016.4
20260905143103 30 46 1.6 4.8 0.00 0.00 0.00 73 1016.4
20260905141621 28 0 0.0 1.6 0.00 0.00 0.00 82 1016.5
20260905140108 26 0 0.0 0.0 0.00 0.00 0.00 87 1016.5
20260905134556 26 0 0.0 0.0 0.00 0.00 0.00 90 1016.5
20260905133101 25 0 0.0 0.0 0.00 0.00 0.00 93 1016.5
20260905131618 24 0 0.0 0.0 0.00 0.00 0.00 96 1016.5
20260905130105 23 0 0.0 0.0 0.00 0.00 0.00 98 1016.6